Location: Gwatt
(46.7204°N, 7.6223°E)
Time: 13:34:06
(UTC+00:00)

S-56A Canister/Altair - Pass Details

Date: 26 January 2021
Orbit: 632 x 2501 km, 38.9° (Epoch: 28 February)

Event Time Altitude Azimuth Distance (km) Brightness Sun altitude
Rises 06:04:37 0° 263° (W) 2,998 - -9.7°
Exits shadow 06:06:25 - 252° (WSW) 2,449 9.6 -9.4°
Reaches altitude 10° 06:07:25 10° 244° (WSW) 2,201 9.5 -9.3°
Maximum altitude 06:10:49 18° 201° (SSW) 1,890 9.5 -8.7°
Drops below altitude 10° 06:14:53 10° 159° (SSE) 2,705 10.9 -8.0°
Sets 06:18:51 0° 143° (SE) 3,994 12.3 -7.4°
